Home > Time Zones > World Clock > Weather > Japan > Kobe > Past weeks

Flag for Japan Weather past 2 weeks in Kobe, Japan

Now
46 °F

Partly cloudy.


Feels Like: 41 °F
Forecast: 41 / 49 °F
Wind: 10 mph from East

Location: Osaka International Airport

Current Time: Feb 28, 2015 at 10:38:16 PM

Latest Report: Feb 28, 2015 at 8:00 PM


Visibility: N/A

Pressure: 30.27 "Hg

Humidity: 50%

Dew point: 28 °F

Location of KobeLocation

Historic Weather in Kobe — Graph

°F

Kobe temperature yesterday

Maximum temperature yesterday: 48 °F (at 11:00 AM)
Minimum temperature yesterday: 39 °F (at 7:00 PM)
Average temperature yesterday: 44 °F

Past Weeks' High & Low Weather Summary

 TemperatureHumidityPressure
High59 °F (Feb 22, 2:00 PM)100% (Feb 23, 5:00 AM)30.36 "Hg (Feb 23, 5:00 AM)
Low28 °F (Feb 21, 7:00 AM)29% (Feb 14, 2:00 PM)29.80 "Hg (Feb 17, 2:00 PM)
Average46 °F63%30.06 "Hg
* Reported Feb 13 8:00 PM — Feb 28 8:00 PM, Kobe, Weather by CustomWeather, © 2015

Note: Actual official high and low records may vary slightly from our data, if they occured in-between our weather recording intervals... More about our weather records

Advertising

Kobe weather history for previous 24 hours

 ConditionsComfort  
Time TempWeatherWind HumidityBarometerVisibility
8:00 PM
Sat, Feb 28
46 °FPartly cloudy.10 mph50%30.27 "HgN/A
7:00 PM48 °FPassing clouds.2 mph50%30.24 "HgN/A
6:00 PM50 °FPartly cloudy.5 mph43%30.24 "HgN/A
5:00 PM50 °FBroken clouds.5 mph40%30.21 "HgN/A
4:00 PM50 °FPartly sunny.3 mph37%30.21 "HgN/A
3:00 PM52 °FPartly sunny.2 mph35%30.24 "HgN/A
2:00 PM50 °FPartly sunny.5 mph37%30.27 "HgN/A
1:00 PM48 °FPartly sunny.5 mph43%30.27 "HgN/A
12:00 PM46 °FScattered clouds.7 mph46%30.33 "HgN/A
11:00 AM45 °FScattered clouds.8 mph42%30.33 "HgN/A
10:00 AM43 °FPassing clouds.3 mph53%30.33 "HgN/A
9:00 AM43 °FPassing clouds.5 mph57%30.36 "HgN/A
8:00 AM39 °FScattered clouds.3 mph65%30.36 "HgN/A
7:00 AM39 °FPartly sunny.1 mph65%30.33 "HgN/A
6:00 AM39 °FPartly cloudy.7 mph65%30.30 "HgN/A
5:00 AM37 °FPassing clouds.7 mph70%30.30 "HgN/A
Weather by CustomWeather, © 2015

See weather overviewHow to use our weather pages